Temp
17 17 17 17 17 16 16 16 16 16 16 15 15 15 15 14 14 13 13 13 13 12 12 11 11 10 10 10 9 9 10 9 9 9 9 9 9 8 8 7 7 7
17 17 17 17 17 16 16 16 16 16 16 16 15 15 15 14 14 14 13 13 13 12 12 11 11 10 10 10 9 9 9 9 9 9 9 9 8 8 8 8 7 7
17 16 16 16 16 16 16 16 16 15 15 15 15 15 14 14 14 14 14 13 13 12 12 11 11 11 10 10 10 9 9 9 9 9 9 9 8 8 8 8 7 7
16 16 16 16 15 15 15 15 15 14 14 14 14 14 14 14 14 14 14 13 13 12 12 11 11 11 10 10 10 10 10 10 9 9 9 9 8 8 8 8 7 7
16 16 16 16 15 15 15 15 14 14 14 14 14 14 14 14 14 14 13 13 13 12 12 11 11 11 11 10 10 10 10 10 9 9 9 9 8 8 8 8 7 7
16 16 16 15 15 15 15 15 14 14 14 14 14 14 13 13 13 13 13 13 13 12 12 12 11 11 11 10 10 10 10 10 10 9 9 9 9 8 8 8 8 7
16 16 16 15 15 15 15 14 14 14 14 13 14 14 13 13 13 13 13 13 12 12 12 12 12 11 11 10 10 10 10 10 10 9 9 9 9 8 8 8 8 7
16 16 16 16 15 15 15 14 14 14 14 13 13 13 13 13 13 12 12 12 12 12 12 12 12 11 11 11 11 10 10 10 10 9 9 9 9 8 8 8 8 7
16 16 16 16 15 15 15 14 14 14 14 13 13 13 13 13 13 12 12 12 12 12 12 12 12 11 11 11 11 10 10 10 10 10 9 9 9 8 8 8 8 7
17 16 16 16 15 15 15 14 14 14 14 13 13 13 13 13 13 13 12 12 12 12 12 12 12 11 11 11 11 11 10 11 10 10 10 9 9 9 8 8 7 7
17 16 16 16 15 15 15 14 14 14 14 13 13 13 13 13 13 13 13 13 13 12 12 12 12 12 11 11 11 11 11 10 10 10 10 9 9 9 8 7 7 7
17 16 16 15 15 15 14 14 14 14 14 14 14 13 13 13 13 13 13 13 13 12 12 12 12 12 12 12 11 11 10 10 10 10 10 9 9 8 8 7 7 7
16 16 15 15 15 15 14 14 14 14 14 14 14 14 13 13 13 13 13 12 12 12 12 11 11 11 11 11 11 11 10 10 10 9 9 9 8 8 8 7 7 7
16 16 15 15 15 15 14 14 14 14 14 14 14 13 13 13 13 12 12 12 12 11 11 11 11 11 10 10 10 10 10 9 9 9 9 9 8 8 8 7 7 7
16 16 15 15 15 14 14 14 14 14 14 13 13 13 13 12 12 12 11 11 11 11 11 10 10 10 10 10 10 10 9 9 9 9 9 9 8 8 7 7 7 6
16 15 15 15 14 14 14 14 14 14 13 13 13 12 12 12 11 11 11 11 11 10 10 10 10 9 9 10 9 9 9 9 9 9 9 8 8 7 7 7 6 6
15 15 14 14 14 14 14 14 14 13 13 13 12 12 12 11 11 11 10 10 10 10 9 9 9 9 9 9 9 9 9 9 9 9 9 8 8 7 7 6 6 6
15 14 14 14 14 14 14 14 13 13 12 12 12 11 11 11 10 10 10 10 10 9 9 9 9 9 9 9 9 9 9 9 9 9 9 8 8 7 7 6 6 6
14 14 14 14 14 14 14 13 13 12 12 11 11 11 10 10 10 9 9 9 9 9 9 9 9 9 9 9 9 9 9 9 9 9 8 8 7 7 6 6 6 6
14 14 14 14 14 14 13 12 12 11 11 11 10 10 10 9 9 9 9 9 9 9 9 9 9 9 9 9 9 9 9 9 9 9 8 8 7 6 6 6 6 6
14 14 14 14 13 12 12 11 11 11 11 10 10 9 9 8 8 8 8 8 8 8 8 8 9 9 9 9 9 9 9 9 9 8 8 8 7 6 6 6 6 5
14 14 14 13 12 12 11 11 11 11 10 10 9 8 8 8 8 8 8 8 8 8 8 8 8 8 9 9 9 9 9 9 9 8 8 7 7 6 6 6 6 5
14 14 13 12 12 12 12 11 11 10 10 9 9 9 8 8 8 8 7 7 7 7 7 7 7 8 8 8 9 9 9 9 9 8 7 7 7 6 6 6 6 5
14 13 12 12 12 11 11 10 10 10 9 9 9 9 9 9 8 8 8 8 7 7 7 7 7 7 7 8 8 8 8 8 8 8 7 7 7 6 6 6 5 5
13 12 11 11 11 11 10 10 10 9 9 9 9 9 9 9 8 8 8 7 7 6 6 6 6 6 6 7 7 7 7 8 8 8 7 7 6 6 6 5 5 5
12 11 11 11 11 10 10 9 9 9 9 9 9 9 9 9 8 8 8 7 6 5 5 5 5 5 5 6 6 7 7 7 8 8 8 7 6 6 5 5 5 5
Height
1485 1486 1485 1485 1485 1485 1485 1484 1483 1483 1482 1481 1480 1479 1478 1477 1476 1475 1474 1473 1472 1471 1470 1469 1469 1468 1467 1466 1465 1465 1464 1462 1461 1460 1459 1458 1457 1456 1455 1454 1454 1453
1485 1485 1485 1485 1485 1484 1484 1483 1482 1481 1481 1480 1479 1478 1477 1476 1475 1473 1472 1471 1470 1469 1468 1468 1467 1466 1465 1464 1463 1463 1462 1461 1460 1459 1458 1456 1455 1454 1454 1453 1452 1451
1485 1485 1485 1485 1484 1484 1483 1482 1482 1481 1479 1479 1477 1476 1475 1474 1473 1472 1470 1469 1468 1467 1467 1466 1465 1464 1463 1462 1461 1460 1460 1459 1458 1457 1456 1455 1454 1453 1453 1452 1451 1450
1485 1485 1485 1484 1484 1483 1483 1482 1481 1480 1478 1477 1476 1475 1474 1473 1471 1470 1469 1468 1467 1466 1465 1464 1463 1462 1461 1460 1459 1458 1458 1457 1456 1455 1454 1453 1453 1452 1452 1451 1450 1449
1485 1484 1484 1484 1483 1483 1482 1481 1480 1478 1477 1476 1475 1474 1473 1471 1470 1469 1468 1466 1465 1464 1463 1462 1461 1460 1459 1458 1457 1456 1456 1455 1454 1453 1452 1451 1451 1450 1450 1449 1448 1448
1484 1484 1484 1483 1483 1482 1481 1480 1479 1477 1476 1475 1474 1473 1472 1470 1469 1468 1466 1465 1463 1462 1461 1460 1459 1458 1457 1456 1455 1454 1454 1453 1453 1452 1450 1450 1449 1449 1448 1447 1447 1446
1483 1483 1483 1482 1482 1481 1480 1479 1478 1476 1475 1474 1473 1472 1470 1469 1468 1466 1465 1463 1462 1461 1459 1458 1457 1456 1455 1454 1453 1452 1452 1451 1451 1450 1448 1448 1447 1446 1446 1445 1445 1444
1482 1482 1481 1481 1480 1479 1478 1477 1476 1475 1474 1473 1472 1471 1469 1468 1466 1465 1463 1462 1461 1459 1458 1456 1455 1454 1453 1452 1451 1450 1449 1449 1448 1447 1446 1445 1445 1444 1444 1444 1443 1443
1481 1481 1480 1479 1479 1478 1477 1476 1475 1474 1473 1472 1470 1469 1468 1466 1464 1463 1461 1460 1459 1457 1456 1455 1453 1452 1451 1450 1449 1448 1447 1446 1445 1445 1444 1443 1442 1442 1442 1442 1441 1441
1480 1479 1479 1478 1478 1477 1476 1475 1474 1472 1471 1470 1468 1467 1465 1464 1462 1461 1459 1458 1456 1455 1454 1453 1451 1450 1449 1448 1446 1445 1445 1443 1442 1442 1441 1440 1440 1440 1440 1440 1440 1439
1478 1478 1477 1477 1476 1475 1474 1473 1472 1470 1469 1468 1466 1465 1463 1462 1461 1459 1457 1456 1454 1453 1452 1450 1449 1448 1447 1446 1444 1443 1442 1441 1440 1439 1437 1437 1438 1438 1437 1438 1438 1438
1477 1476 1475 1474 1473 1472 1472 1471 1469 1468 1467 1466 1464 1463 1461 1460 1459 1457 1455 1454 1452 1451 1450 1448 1447 1446 1444 1443 1442 1441 1439 1438 1437 1436 1435 1434 1435 1435 1435 1435 1435 1435
1474 1473 1473 1472 1471 1470 1470 1469 1468 1467 1465 1464 1462 1461 1459 1458 1456 1455 1453 1452 1450 1449 1448 1447 1445 1444 1443 1441 1440 1438 1437 1436 1434 1434 1433 1432 1432 1433 1433 1433 1433 1434
1472 1471 1470 1470 1470 1469 1468 1467 1466 1465 1463 1462 1461 1459 1457 1456 1454 1453 1451 1450 1449 1447 1446 1445 1443 1442 1441 1439 1438 1436 1435 1433 1432 1431 1430 1430 1430 1431 1431 1432 1432 1433
1470 1470 1469 1469 1468 1467 1467 1466 1465 1464 1462 1461 1459 1457 1456 1454 1453 1451 1449 1448 1447 1445 1444 1443 1441 1440 1439 1437 1436 1434 1433 1432 1431 1430 1429 1428 1429 1429 1430 1431 1431 1432
1469 1469 1468 1468 1467 1466 1466 1464 1463 1462 1460 1459 1457 1456 1454 1453 1451 1449 1447 1446 1444 1443 1442 1441 1440 1439 1437 1435 1434 1433 1431 1430 1429 1428 1427 1427 1427 1428 1429 1429 1430 1431
1468 1468 1467 1467 1466 1465 1464 1463 1462 1460 1459 1458 1456 1455 1453 1451 1449 1448 1446 1444 1443 1442 1441 1440 1438 1437 1435 1434 1433 1431 1430 1429 1428 1427 1426 1425 1425 1426 1427 1428 1428 1429
1467 1467 1466 1466 1465 1464 1463 1462 1460 1459 1457 1456 1454 1453 1451 1450 1448 1446 1445 1443 1442 1441 1440 1438 1437 1435 1434 1433 1431 1430 1429 1427 1426 1426 1424 1424 1424 1424 1425 1426 1426 1427
1466 1465 1465 1465 1464 1463 1462 1460 1459 1457 1456 1454 1453 1451 1450 1449 1447 1445 1444 1442 1441 1439 1438 1436 1435 1434 1432 1431 1430 1429 1428 1426 1425 1424 1423 1423 1423 1424 1424 1425 1425 1425
1465 1464 1464 1464 1463 1462 1460 1459 1458 1456 1454 1453 1452 1450 1449 1447 1446 1444 1442 1441 1440 1438 1437 1435 1434 1432 1431 1430 1429 1427 1426 1426 1424 1423 1422 1421 1422 1423 1423 1424 1424 1424
1464 1464 1463 1463 1461 1460 1459 1458 1456 1455 1453 1452 1451 1449 1448 1446 1445 1443 1441 1440 1438 1437 1436 1434 1432 1431 1430 1429 1427 1426 1425 1424 1423 1422 1421 1421 1421 1422 1422 1423 1424 1424
1463 1463 1462 1461 1460 1459 1458 1456 1455 1454 1452 1451 1450 1449 1447 1445 1444 1442 1440 1438 1437 1435 1434 1432 1431 1430 1428 1427 1426 1425 1423 1423 1422 1421 1420 1420 1420 1421 1422 1422 1423 1424
1462 1462 1461 1460 1459 1458 1456 1455 1454 1453 1451 1450 1449 1447 1445 1444 1442 1440 1438 1436 1435 1433 1431 1430 1429 1428 1427 1425 1424 1423 1422 1421 1420 1420 1419 1419 1420 1420 1421 1422 1422 1423
1461 1461 1460 1459 1458 1457 1455 1454 1453 1452 1450 1449 1447 1445 1444 1442 1440 1438 1436 1434 1432 1430 1428 1427 1426 1425 1424 1423 1422 1421 1420 1420 1419 1418 1418 1419 1419 1419 1420 1421 1422 1423
1461 1460 1459 1458 1457 1456 1454 1453 1452 1451 1449 1448 1446 1444 1442 1441 1439 1437 1435 1432 1430 1428 1426 1425 1424 1423 1421 1420 1419 1419 1419 1418 1417 1417 1417 1418 1418 1418 1419 1420 1421 1422
1460 1459 1458 1457 1456 1455 1454 1453 1451 1450 1448 1447 1445 1444 1441 1439 1437 1435 1433 1431 1429 1427 1425 1423 1421 1420 1418 1417 1417 1417 1417 1417 1416 1416 1416 1416 1417 1417 1418 1419 1420 1422
Wind_Speed
8 8 9 10 11 11 12 12 13 14 14 15 15 16 16 17 17 18 18 18 18 17 15 14 14 15 15 15 15 15 15 15 14 14 13 13 12 12 12 12 12 13
6 7 8 8 9 10 11 11 12 13 14 14 15 16 16 17 17 18 18 19 18 17 16 15 15 15 16 16 16 16 15 15 15 15 15 14 13 13 14 13 13 13
5 5 6 7 8 8 9 11 12 12 13 13 14 15 16 16 17 17 18 19 19 18 17 16 16 16 16 17 18 17 16 16 16 16 16 15 14 15 15 13 13 13
5 6 6 7 8 8 9 11 11 12 13 13 13 14 15 16 17 18 18 19 19 19 18 17 17 17 17 18 18 18 18 17 17 17 17 16 15 15 15 14 13 12
6 7 7 7 8 9 10 11 12 12 12 13 13 14 16 17 17 18 19 19 19 19 18 17 18 17 17 18 18 19 18 17 16 18 19 17 15 15 15 15 14 12
6 6 6 7 8 9 10 11 11 12 12 13 14 15 15 17 18 19 19 19 19 19 18 17 18 18 17 17 18 19 19 17 17 17 19 18 17 16 16 15 14 13
5 5 6 7 8 10 11 11 11 12 13 14 15 16 17 18 19 20 20 19 19 18 17 17 18 19 18 17 19 19 19 18 18 18 19 18 17 17 16 15 14 13
5 6 7 9 9 10 11 12 12 13 14 15 16 17 18 18 19 20 20 19 18 18 17 17 17 18 18 18 19 20 19 19 19 19 19 18 18 18 17 15 13 13
7 8 9 10 11 11 12 12 13 14 15 16 16 16 17 17 17 17 18 18 17 18 18 18 18 19 19 19 20 21 20 20 20 21 20 19 19 18 17 15 13 12
9 10 10 12 12 12 12 13 13 14 14 15 15 16 16 16 16 16 17 18 18 20 20 20 19 20 20 19 20 21 21 21 22 22 22 21 20 18 17 16 13 12
11 12 12 13 12 12 12 12 13 13 14 15 16 17 17 18 18 18 19 21 21 22 23 22 20 20 20 20 20 20 21 22 23 24 24 23 21 19 16 15 13 12
13 14 13 12 12 12 12 13 14 14 15 17 18 20 20 20 21 22 23 24 24 24 23 22 21 21 21 21 20 19 20 22 23 25 26 24 21 19 17 15 14 13
15 14 13 12 12 13 14 14 16 17 18 19 20 21 22 23 23 24 24 24 24 23 21 21 21 21 21 20 20 20 19 20 21 23 23 21 19 19 17 15 14 11
15 14 13 13 14 15 16 16 17 17 18 19 20 21 21 22 23 23 23 23 23 22 21 21 21 20 20 19 19 19 19 19 19 19 18 17 16 16 16 15 13 9
14 13 14 14 15 15 16 16 16 17 18 19 20 20 21 21 21 22 22 22 22 22 20 20 19 18 18 18 17 17 17 18 17 16 15 14 13 13 14 14 11 8
12 13 13 13 14 14 14 15 16 17 19 20 20 21 21 21 21 21 21 21 21 20 19 18 17 16 16 16 16 16 17 17 16 14 13 11 9 11 12 11 7 6
11 11 11 11 12 13 14 16 18 19 20 20 20 20 21 21 21 21 21 20 20 19 18 17 16 16 16 16 16 17 16 16 14 13 10 6 7 9 9 7 6 5
9 9 9 10 12 14 16 18 19 19 19 20 20 21 22 22 22 22 21 20 20 19 18 18 17 17 17 17 17 16 16 15 13 12 8 5 5 8 7 7 7 4
7 8 9 12 15 16 18 19 19 19 19 20 21 22 22 22 21 21 20 20 19 19 18 18 19 19 18 17 17 16 15 15 13 10 8 5 5 7 7 7 5 4
8 10 12 15 16 17 17 17 18 19 20 20 21 21 21 21 20 19 19 19 19 18 18 19 19 19 18 17 17 15 15 15 12 9 7 6 5 6 6 7 5 5
9 12 14 15 15 16 16 17 18 19 20 20 20 20 20 19 18 18 18 18 19 19 19 19 18 18 17 17 17 16 15 14 11 7 6 6 6 6 6 7 5 4
11 13 14 14 14 15 16 18 19 19 20 20 19 19 19 18 19 20 20 20 20 20 20 20 19 18 17 16 17 16 14 11 8 7 7 6 6 7 7 7 6 5
12 13 13 13 14 15 17 17 18 19 19 20 21 22 23 23 23 23 23 23 23 23 23 22 20 18 17 16 15 14 12 9 5 5 6 6 6 7 8 8 7 5
12 12 12 13 14 15 16 16 17 19 20 21 23 24 25 26 26 25 25 25 25 25 24 23 20 19 17 15 14 12 10 9 6 4 4 5 6 6 7 9 7 4
11 11 12 13 14 14 15 16 17 19 21 22 23 24 25 26 26 27 26 26 25 24 23 21 19 18 16 16 14 11 9 9 8 4 2 2 3 4 6 10 7 6
10 10 11 12 13 14 15 16 18 20 21 22 23 24 26 27 27 27 26 25 23 22 21 20 18 16 15 14 14 11 8 7 8 6 3 1 1 2 5 9 8 7
Wind_Direction
276 281 287 293 296 300 302 302 300 300 302 304 304 306 306 306 306 305 304 302 301 301 301 301 302 305 306 306 304 304 307 306 307 313 317 319 319 310 301 300 310 320
282 288 297 304 310 313 311 310 308 309 312 312 311 311 310 309 308 307 305 302 300 299 299 299 300 301 302 303 302 301 307 310 307 308 312 314 316 314 309 301 304 313
297 305 317 324 329 329 325 321 322 321 320 319 318 318 316 314 312 309 306 304 300 298 298 299 299 300 301 303 302 301 305 308 305 303 307 310 309 311 313 303 298 306
305 314 325 333 336 337 335 333 334 329 323 323 324 323 322 321 318 315 312 308 305 303 301 300 300 300 301 300 300 300 301 304 304 298 298 306 306 306 310 304 297 300
303 311 321 328 329 332 335 337 337 333 328 328 328 328 327 325 321 318 314 309 305 303 302 301 300 300 301 298 296 298 298 299 303 298 294 299 303 303 306 304 298 296
301 307 311 313 318 324 329 333 334 335 337 336 334 333 330 326 321 317 314 312 310 307 305 304 303 302 302 299 295 295 296 297 301 299 296 297 299 300 303 303 300 294
302 300 298 301 310 317 321 326 330 336 339 337 334 333 331 328 324 322 323 323 322 319 315 312 308 305 303 300 296 294 296 299 299 297 297 297 294 293 297 300 299 294
289 290 295 300 307 312 316 322 327 331 333 331 331 331 330 328 326 326 327 327 326 323 320 317 312 307 301 296 295 295 296 298 295 292 294 295 291 289 291 295 298 297
287 293 299 302 306 310 315 319 323 326 327 326 325 323 322 321 319 320 320 318 316 314 315 314 309 307 303 295 291 292 293 293 291 288 288 290 289 288 287 289 296 300
295 300 303 305 309 312 313 314 315 316 317 315 312 309 308 307 306 306 306 306 305 307 310 309 304 304 305 300 294 294 295 295 293 289 286 284 283 285 284 283 291 300
297 300 302 304 305 305 303 301 302 303 303 302 300 299 299 300 300 301 302 303 303 306 309 307 303 303 304 303 299 296 297 298 297 295 292 285 278 282 283 276 283 297
294 295 296 294 291 291 291 292 294 295 296 297 297 299 300 301 302 302 303 304 306 309 310 309 306 304 303 303 300 296 295 296 299 301 301 294 281 280 280 271 279 297
291 290 285 282 281 285 289 293 296 296 297 300 301 303 305 305 305 305 306 307 309 312 312 311 309 307 306 304 300 295 292 295 300 303 306 302 286 278 277 274 281 295
286 281 276 277 282 288 294 297 299 301 303 306 309 310 311 310 310 309 309 310 311 311 310 309 309 310 310 308 301 296 294 296 302 304 308 307 290 279 278 279 286 291
277 275 276 282 287 293 298 302 305 308 311 314 315 315 314 313 314 315 315 316 314 314 313 313 313 314 314 310 303 301 302 303 305 306 310 311 296 281 278 278 284 284
270 275 281 287 293 299 304 307 311 314 316 318 318 318 319 319 322 324 326 325 323 324 326 325 324 321 316 310 306 305 308 310 310 308 312 315 300 282 274 270 268 261
270 278 285 293 300 305 309 314 318 320 321 322 323 324 326 328 330 332 332 330 328 329 330 328 326 321 316 313 310 309 309 311 313 313 317 317 294 278 268 260 256 243
276 284 293 303 309 314 318 321 323 324 326 328 329 330 332 333 334 334 333 330 327 326 326 323 321 320 320 317 314 312 313 313 312 313 317 314 283 268 259 264 266 234
284 297 307 315 318 321 323 325 326 328 331 332 333 334 334 335 335 333 331 329 327 327 326 322 320 320 321 321 318 315 316 316 312 309 314 316 285 264 261 272 260 198
296 310 317 321 322 324 326 328 330 332 334 334 335 336 337 337 336 333 331 328 327 327 326 323 321 321 322 323 320 316 317 318 314 309 314 316 290 262 261 267 239 187
308 319 324 325 327 330 330 331 332 334 336 337 339 340 340 339 337 333 330 328 326 325 324 323 323 323 323 323 321 317 316 316 317 324 334 328 300 266 254 255 223 184
322 327 329 331 332 332 331 333 335 338 339 339 339 339 337 335 333 331 330 328 325 323 322 322 323 323 322 321 318 314 311 310 320 346 0 348 311 273 253 239 210 191
330 330 331 333 333 333 334 337 340 340 339 337 336 335 333 332 331 330 328 325 322 320 318 318 321 323 321 317 312 307 301 297 314 356 10 360 326 288 253 231 215 197
331 331 333 335 335 337 339 341 342 340 339 338 337 336 335 334 334 333 330 328 326 323 319 317 316 315 315 312 308 301 292 285 293 337 9 5 343 307 250 227 218 186
331 334 336 337 338 340 343 342 341 340 340 340 339 338 338 338 337 336 335 336 337 336 333 330 323 312 305 303 303 301 291 282 282 294 334 5 355 317 247 226 211 175
336 338 339 341 342 344 344 342 340 339 339 339 339 339 339 339 337 337 340 344 349 350 350 347 340 326 312 303 302 299 286 273 272 277 279 280 354 311 245 227 205 174